Location: Newton_Old_St_Pauls
(35.6750°N, 81.2580°W)
Time: 22:22:18
(UTC-04:00)

Daily predictions for brighter satellites

Satellite Brightness Start Highest point End
(mag) Time Altitude Azimuth Time Altitude Azimuth Time Altitude Azimuth
Cosmos 2369 Rocket 3.8 20:56:02 10° NW 21:01:06 34° WSW 21:06:09 10° SSW
Cosmos 2315 Rocket 4.3 20:57:29 10° S 21:03:44 78° W 21:10:06 10° N
Cosmos 1544 Rocket 3.5 21:00:19 10° N 21:04:40 90° SE 21:08:58 10° S
Cosmos 1943 Rocket 2.6 20:59:17 10° NNW 21:04:49 63° WSW 21:10:16 10° S
Aureole 1 Rocket 2.9 21:04:23 10° S 21:07:33 34° ESE 21:10:22 10° NE
Resurs 1-3 3.9 21:08:25 10° S 21:12:46 70° WSW 21:17:09 10° NNW
Cosmos 405 Rocket 2.7 21:10:28 10° S 21:14:09 62° E 21:17:56 10° NNE
DEBRIS 3.5 21:14:11 10° WSW 21:16:59 69° NNW 21:24:47 10° NE
Cosmos 1500 4.0 21:14:42 10° NNW 21:18:23 52° W 21:22:01 10° S
Meteor 1-19 Rocket 4.3 21:12:47 10° S 21:18:33 67° E 21:24:15 10° NNE
Cosmos 923 Rocket 4.2 21:15:01 10° SSW 21:20:21 80° WNW 21:25:41 10° NNE
Cosmos 1441 Rocket 3.7 21:19:33 10° SSE 21:23:01 37° E 21:26:30 10° NNE
Tiangong 2 2.5 21:20:08 10° W 21:23:09 39° NNW 21:26:10 10° NE
ERS-1 Rocket 4.1 21:21:27 12° SE 21:25:16 28° ENE 21:29:31 10° N
Resurs 01 Rocket 2.9 21:22:20 10° S 21:26:31 41° W 21:30:43 10° NNW
Cosmos 1455 Rocket 3.8 21:25:19 10° NNW 21:29:34 53° W 21:33:46 10° S
CENTAUR R/B 3.2 21:21:33 10° NNW 21:29:38 87° ENE 21:37:39 12° SSE
Nadezhda 1 Rocket 4.1 21:29:01 10° S 21:35:14 61° E 21:41:31 10° NNE
Meteor 1-29 2.8 21:32:47 10° NNE 21:36:09 84° ESE 21:39:30 10° S
COSMOS 2406 3.9 21:35:05 10° SW 21:40:42 58° WNW 21:46:21 10° NNE
Cosmos 2082 Rocket 3.5 21:41:51 17° ESE 21:43:31 20° E 21:47:29 10° NE
ASTRO E2 3.8 21:44:50 10° WSW 21:48:20 30° SSW 21:49:56 22° SSE
CZ-4B DEB 2.8 21:48:37 18° S 21:50:40 67° W 21:53:39 10° NNW
Cosmos 1743 3.5 21:47:10 10° NNW 21:50:59 53° W 21:54:46 10° S
CRYOSAT 2 4.4 21:48:52 17° SSE 21:52:29 60° E 21:57:16 10° N
Cosmos 2154 Rocket 4.3 21:47:23 10° N 21:53:33 50° E 21:57:43 21° SSE
Cosmos 1238 Rocket 4.1 21:47:50 10° S 21:54:32 83° E 22:01:07 10° N
Aureole 3 Rocket 4.2 21:50:04 10° SSW 21:56:40 62° W 22:01:21 10° N
ISS -1.1 21:54:58 10° W 21:57:42 23° NNW 22:00:24 10° NNE
ASTEX 1 3.3 21:55:06 17° SSE 21:58:57 77° E 22:03:51 10° N
H-2A R/B 3.4 21:59:49 18° E 22:01:33 21° ENE 22:05:16 10° NNE
OAO 2 Rocket 3.2 21:57:04 10° W 22:02:00 82° S 22:05:08 23° E
Helios 1A 4.1 21:59:05 10° S 22:03:03 40° W 22:07:02 10° NNW
Cosmos 1624 Rocket 4.5 21:58:03 10° N 22:03:08 45° ENE 22:05:36 27° SE
SL-27 R/B 4.3 22:02:25 10° SW 22:05:47 34° WNW 22:09:09 10° N
Cosmos 967 Rocket 4.4 22:00:00 10° SSW 22:06:13 76° ESE 22:12:30 10° NNE
Cosmos 1939 Rocket 3.9 22:04:16 12° SSW 22:07:35 40° W 22:11:14 10° NNW
YAOGAN 6 2.7 22:06:34 25° S 22:08:25 66° W 22:11:54 10° NNW
Cosmos 2228 4.4 22:05:39 10° NNE 22:08:59 22° ENE 22:09:26 21° E
Cosmos 921 Rocket 4.1 22:07:34 10° N 22:11:32 30° ENE 22:12:33 27° E
Cosmos 1666 3.8 22:10:02 10° NNW 22:13:33 40° W 22:16:14 16° SSW
Meteor 2-9 Rocket 4.4 22:09:31 10° NNW 22:15:01 73° W 22:19:13 18° S
Okean 1-7 Rocket 4.2 22:11:37 10° SSW 22:15:59 57° W 22:20:25 10° N
Cosmos 1892 Rocket 3.6 22:15:22 35° SSE 22:16:58 56° E 22:21:18 10° NNE
Cosmos 1833 Rocket 3.1 22:19:03 32° SE 22:20:38 39° ESE 22:25:50 10° NE
DNEPR-1 R/B 4.3 22:16:29 10° NW 22:20:40 48° WSW 22:22:55 27° S
Intercosmos 24 3.6 22:18:11 10° N 22:21:52 82° W 22:22:54 44° S
NOSS 8 (E) 4.3 22:19:23 13° SSW 22:22:24 88° ESE 22:25:59 10° NNE
Cosmos 2056 Rocket 3.5 22:17:20 10° N 22:22:27 64° ENE 22:24:17 38° SE
CZ-3B Rocket 4.1 22:18:27 10° SSW 22:39:11 - ESE 22:21:33 21° S
Cosmos 1437 Rocket 2.6 22:20:34 10° N 22:24:25 81° E 22:25:17 52° SSE
MetOp-A 4.1 22:23:24 31° SSE 22:26:02 85° ENE 22:31:26 10° NNW
Cosmos 2341 Rocket 4.0 22:20:04 10° N 22:26:25 68° E 22:29:28 32° SSE
Cosmos 1606 Rocket 3.4 22:27:47 10° N 22:32:07 88° E 22:33:15 49° S
PSLV R/B 3.3 22:30:08 10° WNW 22:32:59 67° NNW 22:32:59 67° NNW
Cosmos 1066 Rocket 4.4 22:34:17 41° SE 22:35:32 49° E 22:40:55 10° NNE
USA 245 4.3 22:42:20 26° N 22:42:20 26° N 22:43:30 10° N
Cosmos 1726 Rocket 3.4 22:37:31 10° N 22:41:52 87° W 22:42:37 60° S
Cosmos 1515 4.0 22:40:58 44° SW 22:41:55 62° W 22:45:41 10° N
COSMOS 2487 2.5 22:43:44 71° W 22:43:53 72° WNW 22:47:27 10° NNE
CZ-3A R/B 3.0 22:46:30 10° WSW 22:49:26 20° NW 22:50:15 17° NNW
Landsat 7 4.1 22:52:27 49° E 22:52:45 50° ENE 22:57:20 10° N
SPOT 1/Viking Rocket 3.4 22:51:40 56° SSE 22:52:45 79° ENE 22:57:55 10° N
YAOGAN 11 4.4 22:52:10 48° SW 22:52:59 58° W 22:57:15 10° NNW
Cosmos 2181 Rocket 4.1 22:49:25 25° SSW 22:53:23 75° W 22:59:42 10° N
Cosmos 1452 Rocket 3.8 22:49:20 10° N 22:54:26 49° ENE 22:55:04 47° E
Cosmos 1980 Rocket 3.6 22:50:50 10° N 22:55:16 23° ENE 22:56:23 22° ENE
Cosmos 2058 Rocket 3.0 22:52:03 10° N 22:56:28 83° W 22:56:51 74° SSW
ARGOS 3.4 22:58:31 41° SSW 23:00:16 62° WSW 23:05:39 10° NNW
Tiangong 2 3.4 22:57:51 10° NW 23:00:23 21° N 23:00:58 20° NNE
Terra 2.2 23:07:57 49° ENE 23:07:57 49° ENE 23:12:22 10° N
USA 267 4.3 23:02:19 10° ENE 23:05:41 26° E 23:05:41 26° E
SPOT 5 3.4 23:09:29 40° WSW 23:09:58 42° W 23:14:06 10° NNW
H-2A R/B 2.6 23:15:12 52° NE 23:15:12 52° NE 23:19:08 10° N
IGS 5A 4.2 23:18:14 45° NNE 23:18:14 45° NNE 23:21:25 10° N
Cosmos 468 4.4 23:17:24 71° SSW 23:18:00 85° WNW 23:23:18 10° NNE
Cosmos 1812 Rocket 4.5 23:15:09 10° N 23:18:32 41° NE 23:18:32 41° NE
Cosmos 864 Rocket 4.4 23:13:29 10° N 23:19:48 76° E 23:20:41 65° SE
Meteor 2-21 4.2 23:18:02 10° N 23:24:05 88° ENE 23:24:52 70° S
Cosmos 1626 Rocket 4.0 23:26:20 59° NW 23:26:20 59° NW 23:30:02 10° N
Cosmos 2082 Rocket 3.0 23:23:34 21° SW 23:27:09 48° WNW 23:32:38 10° N
Meteor 2-21 Rocket 4.2 23:22:06 10° N 23:28:10 77° E 23:28:37 72° SE
Cosmos 2278 4.2 23:25:10 10° NNW 23:30:38 49° WSW 23:31:15 47° SW
SL-19 R/B 4.0 23:27:53 10° NNE 23:33:12 85° WNW 23:33:15 85° W
Meteor 1-22 Rocket 4.0 23:29:22 10° N 23:34:39 86° WNW 23:34:39 86° WNW
USA 229 DEB 4.3 23:30:29 10° NNW 23:37:25 50° NE 23:39:05 42° E
USA 229 4.3 23:30:36 10° NNW 23:37:31 49° NE 23:39:12 42° E
H-2A R/B 2.9 23:40:27 37° WSW 23:40:40 37° W 23:45:18 10° NNW
Cosmos 2366 rocket 4.1 23:36:42 10° NNW 23:42:47 65° W 23:43:34 59° SW
Cosmos 158 Rocket 4.1 23:46:05 72° NW 23:46:05 72° NW 23:51:16 10° NNE
Cosmos 1697 Rocket 2.8 23:45:41 10° NNW 23:50:57 67° W 23:50:57 67° W
